Time,TemperatureF,DewpointF,PressureIn,WindDirection,WindDirectionDegrees,WindSpeedMPH,WindSpeedGustMPH,Humidity,HourlyPrecipIn,Conditions,Clouds,dailyrainin,SoftwareType,DateUTC
2013-06-12 00:03:00,50.6,47.8,30.24,ESE,110,0.0,0.0,90,0.00,SCT,SCT,0.09,WeatherDisplay:10.37,2013-06-12 07:03:00,
2013-06-12 00:08:00,50.4,47.6,30.24,ESE,110,0.0,0.0,90,0.00,SCT,SCT,0.09,WeatherDisplay:10.37,2013-06-12 07:08:00,
2013-06-12 00:18:00,49.9,47.4,30.24,ESE,110,0.0,0.0,91,0.00,SCT,SCT,0.09,WeatherDisplay:10.37,2013-06-12 07:18:00,
2013-06-12 00:23:00,49.7,47.2,30.24,ESE,110,0.0,0.0,91,0.00,SCT,SCT,0.09,WeatherDisplay:10.37,2013-06-12 07:23:00,
2013-06-12 00:28:00,49.4,47.2,30.24,ESE,110,0.0,0.0,92,0.00,SCT,SCT,0.09,WeatherDisplay:10.37,2013-06-12 07:28:00,
2013-06-12 00:33:00,49.3,47.1,30.24,ESE,110,0.0,0.0,92,0.00,SCT,SCT,0.09,WeatherDisplay:10.37,2013-06-12 07:33:00,
2013-06-12 00:38:00,49.1,46.9,30.24,ESE,110,0.0,0.0,92,0.00,SCT,SCT,0.09,WeatherDisplay:10.37,2013-06-12 07:38:00,
2013-06-12 00:43:00,48.9,47.0,30.24,ESE,110,0.0,0.0,93,0.00,SCT,SCT,0.09,WeatherDisplay:10.37,2013-06-12 07:43:00,
2013-06-12 00:48:00,48.8,46.8,30.24,ESE,110,0.0,0.0,93,0.00,SCT,SCT,0.09,WeatherDisplay:10.37,2013-06-12 07:48:00,
2013-06-12 00:53:00,48.7,46.8,30.24,ESE,110,0.0,0.0,93,0.00,SCT,SCT,0.09,WeatherDisplay:10.37,2013-06-12 07:53:00,
2013-06-12 00:58:00,48.7,46.8,30.24,ESE,110,0.0,0.0,93,0.00,SCT,SCT,0.09,WeatherDisplay:10.37,2013-06-12 07:58:00,
2013-06-12 01:03:00,48.8,47.2,30.24,ESE,110,0.0,0.0,94,0.00,SCT,SCT,0.09,WeatherDisplay:10.37,2013-06-12 08:03:00,
2013-06-12 01:08:00,48.8,47.2,30.24,ESE,110,0.0,0.0,94,0.00,SCT,SCT,0.09,WeatherDisplay:10.37,2013-06-12 08:08:00,
2013-06-12 01:13:00,49.0,47.3,30.24,ESE,110,0.0,0.0,94,0.00,SCT,SCT,0.09,WeatherDisplay:10.37,2013-06-12 08:13:00,
2013-06-12 01:18:00,49.2,47.5,30.24,ESE,110,0.0,0.0,94,0.00,SCT,SCT,0.09,WeatherDisplay:10.37,2013-06-12 08:18:00,
2013-06-12 01:23:00,49.3,47.6,30.24,ESE,110,0.0,0.0,94,0.00,SCT,SCT,0.09,WeatherDisplay:10.37,2013-06-12 08:23:00,
2013-06-12 01:33:00,49.5,47.9,30.24,ESE,110,0.0,0.0,94,0.00,SCT,SCT,0.09,WeatherDisplay:10.37,2013-06-12 08:33:00,
2013-06-12 01:38:00,49.6,47.9,30.25,ESE,111,0.0,0.0,94,0.00,SCT,SCT,0.09,WeatherDisplay:10.37,2013-06-12 08:38:00,
2013-06-12 01:43:00,49.6,47.9,30.25,ESE,111,0.0,0.0,94,0.00,SCT,SCT,0.09,WeatherDisplay:10.37,2013-06-12 08:43:00,
2013-06-12 01:48:00,49.6,47.9,30.25,ESE,110,0.0,0.0,94,0.00,SCT,SCT,0.09,WeatherDisplay:10.37,2013-06-12 08:48:00,
2013-06-12 01:53:00,49.7,48.0,30.25,ESE,110,0.0,0.0,94,0.00,SCT,SCT,0.09,WeatherDisplay:10.37,2013-06-12 08:53:00,
2013-06-12 01:58:00,49.8,48.1,30.25,ESE,110,0.0,0.0,94,0.00,SCT,SCT,0.09,WeatherDisplay:10.37,2013-06-12 08:58:00,
2013-06-12 02:03:00,49.8,47.9,30.25,ESE,111,0.0,0.0,93,0.00,SCT,SCT,0.09,WeatherDisplay:10.37,2013-06-12 09:03:00,
2013-06-12 02:08:00,49.9,47.7,30.24,ESE,118,0.0,1.0,92,0.00,SCT,SCT,0.09,WeatherDisplay:10.37,2013-06-12 09:08:00,
2013-06-12 02:13:00,50.2,47.6,30.24,SE,141,0.0,0.0,91,0.00,SCT,SCT,0.09,WeatherDisplay:10.37,2013-06-12 09:13:00,
2013-06-12 02:18:00,50.4,47.9,30.25,SSE,155,0.0,0.0,91,0.00,SCT,SCT,0.09,WeatherDisplay:10.37,2013-06-12 09:18:00,
2013-06-12 02:23:00,50.5,47.7,30.25,SSE,154,0.0,1.0,90,0.00,SCT,SCT,0.09,WeatherDisplay:10.37,2013-06-12 09:23:00,
2013-06-12 02:28:00,50.7,47.3,30.25,SSE,153,0.0,0.0,88,0.00,SCT,SCT,0.09,WeatherDisplay:10.37,2013-06-12 09:28:00,
2013-06-12 02:33:00,50.8,47.1,30.24,SSW,201,0.0,0.0,87,0.00,SCT,SCT,0.09,WeatherDisplay:10.37,2013-06-12 09:33:00,
2013-06-12 02:38:00,51.0,47.3,30.24,WSW,249,0.0,0.0,87,0.00,SCT,SCT,0.09,WeatherDisplay:10.37,2013-06-12 09:38:00,
2013-06-12 02:43:00,51.1,47.3,30.24,WSW,248,0.0,0.0,87,0.00,SCT,SCT,0.09,WeatherDisplay:10.37,2013-06-12 09:43:00,
2013-06-12 02:48:00,51.1,47.1,30.24,WSW,248,0.0,0.0,86,0.00,SCT,SCT,0.09,WeatherDisplay:10.37,2013-06-12 09:48:00,
2013-06-12 02:53:00,51.2,47.5,30.24,WSW,248,0.0,0.0,87,0.00,SCT,SCT,0.09,WeatherDisplay:10.37,2013-06-12 09:53:00,
2013-06-12 02:58:00,51.3,47.9,30.24,WSW,248,0.0,0.0,88,0.00,SCT,SCT,0.09,WeatherDisplay:10.37,2013-06-12 09:58:00,
2013-06-12 03:03:00,51.2,47.8,30.24,WSW,248,0.0,0.0,88,0.00,SCT,SCT,0.09,WeatherDisplay:10.37,2013-06-12 10:03:00,
2013-06-12 03:08:00,51.1,47.7,30.24,WSW,248,0.0,0.0,88,0.00,SCT,SCT,0.09,WeatherDisplay:10.37,2013-06-12 10:08:00,
2013-06-12 03:13:00,51.1,47.4,30.24,WSW,248,0.0,0.0,87,0.00,SCT,SCT,0.09,WeatherDisplay:10.37,2013-06-12 10:13:00,
2013-06-12 03:18:00,51.0,47.3,30.24,WSW,249,0.0,0.0,87,0.00,SCT,SCT,0.09,WeatherDisplay:10.37,2013-06-12 10:18:00,
2013-06-12 03:23:00,51.0,47.6,30.24,WSW,248,0.0,0.0,88,0.00,SCT,SCT,0.09,WeatherDisplay:10.37,2013-06-12 10:23:00,
2013-06-12 03:28:00,51.0,47.6,30.24,WSW,248,0.0,0.0,88,0.00,SCT,SCT,0.09,WeatherDisplay:10.37,2013-06-12 10:28:00,
2013-06-12 03:33:00,50.9,47.5,30.24,WSW,248,0.0,0.0,88,0.00,SCT,SCT,0.09,WeatherDisplay:10.37,2013-06-12 10:33:00,
2013-06-12 03:38:00,50.8,47.4,30.24,WSW,248,0.0,0.0,88,0.00,SCT,SCT,0.09,WeatherDisplay:10.37,2013-06-12 10:38:00,
2013-06-12 03:43:00,50.8,47.4,30.24,WSW,248,0.0,0.0,88,0.00,SCT,SCT,0.09,WeatherDisplay:10.37,2013-06-12 10:43:00,
2013-06-12 03:48:00,50.8,47.7,30.24,WSW,248,0.0,0.0,89,0.00,SCT,SCT,0.09,WeatherDisplay:10.37,2013-06-12 10:48:00,
2013-06-12 03:53:00,50.8,47.6,30.25,WSW,248,0.0,0.0,89,0.00,SCT,SCT,0.09,WeatherDisplay:10.37,2013-06-12 10:53:00,
2013-06-12 03:58:00,50.7,47.5,30.25,WSW,249,0.0,0.0,89,0.00,SCT,SCT,0.09,WeatherDisplay:10.37,2013-06-12 10:58:00,
2013-06-12 04:03:00,50.7,47.6,30.25,WSW,249,0.0,0.0,89,0.00,SCT,SCT,0.09,WeatherDisplay:10.37,2013-06-12 11:03:00,
2013-06-12 04:08:00,50.7,47.6,30.25,WSW,249,0.0,0.0,89,0.00,SCT,SCT,0.09,WeatherDisplay:10.37,2013-06-12 11:08:00,
2013-06-12 04:13:00,50.7,47.9,30.25,WSW,249,0.0,0.0,90,0.00,SCT,SCT,0.09,WeatherDisplay:10.37,2013-06-12 11:13:00,
2013-06-12 04:18:00,50.6,47.8,30.25,WSW,249,0.0,0.0,90,0.00,SCT,SCT,0.09,WeatherDisplay:10.37,2013-06-12 11:18:00,
2013-06-12 04:23:00,50.5,47.7,30.25,WSW,248,0.0,0.0,90,0.00,SCT,SCT,0.09,WeatherDisplay:10.37,2013-06-12 11:23:00,
2013-06-12 04:28:00,50.4,47.6,30.25,WSW,248,0.0,0.0,90,0.00,SCT,SCT,0.09,WeatherDisplay:10.37,2013-06-12 11:28:00,
2013-06-12 04:33:00,50.4,47.6,30.25,WSW,248,0.0,0.0,90,0.00,SCT,SCT,0.09,WeatherDisplay:10.37,2013-06-12 11:33:00,
2013-06-12 04:38:00,50.5,47.7,30.25,SSW,210,0.0,1.0,90,0.00,SCT,SCT,0.09,WeatherDisplay:10.37,2013-06-12 11:38:00,
2013-06-12 04:43:00,50.5,47.7,30.25,South,174,0.0,1.0,90,0.00,SCT,SCT,0.09,WeatherDisplay:10.37,2013-06-12 11:43:00,
2013-06-12 04:48:00,50.6,47.8,30.25,South,173,0.0,0.0,90,0.00,SCT,SCT,0.09,WeatherDisplay:10.37,2013-06-12 11:48:00,
2013-06-12 04:53:00,50.6,47.8,30.25,South,173,0.0,0.0,90,0.00,SCT,SCT,0.09,WeatherDisplay:10.37,2013-06-12 11:53:00,
2013-06-12 04:58:00,50.6,47.8,30.25,South,173,0.0,0.0,90,0.00,SCT,SCT,0.09,WeatherDisplay:10.37,2013-06-12 11:58:00,
2013-06-12 05:03:00,50.6,47.8,30.25,South,173,0.0,0.0,90,0.00,SCT,SCT,0.09,WeatherDisplay:10.37,2013-06-12 12:03:00,
2013-06-12 05:08:00,50.6,47.8,30.25,South,174,0.0,0.0,90,0.00,SCT,SCT,0.09,WeatherDisplay:10.37,2013-06-12 12:08:00,
2013-06-12 05:13:00,50.7,47.9,30.25,South,174,0.0,0.0,90,0.00,SCT,SCT,0.09,WeatherDisplay:10.37,2013-06-12 12:13:00,
2013-06-12 05:18:00,50.8,48.0,30.25,South,174,0.0,0.0,90,0.00,SCT,SCT,0.09,WeatherDisplay:10.37,2013-06-12 12:18:00,
2013-06-12 05:23:00,50.8,48.0,30.25,South,174,0.0,0.0,90,0.00,SCT,SCT,0.09,WeatherDisplay:10.37,2013-06-12 12:23:00,
2013-06-12 05:28:00,50.8,48.0,30.25,South,174,0.0,0.0,90,0.00,SCT,SCT,0.09,WeatherDisplay:10.37,2013-06-12 12:28:00,
2013-06-12 05:33:00,50.8,48.0,30.25,South,174,0.0,0.0,90,0.00,SCT,SCT,0.09,WeatherDisplay:10.37,2013-06-12 12:33:00,
2013-06-12 05:38:00,50.8,48.0,30.25,South,174,0.0,0.0,90,0.00,SCT,SCT,0.09,WeatherDisplay:10.37,2013-06-12 12:38:00,
2013-06-12 05:43:00,50.8,48.0,30.25,South,174,0.0,0.0,90,0.00,SCT,SCT,0.09,WeatherDisplay:10.37,2013-06-12 12:43:00,
2013-06-12 05:48:00,50.9,48.1,30.25,South,174,0.0,0.0,90,0.00,SCT,SCT,0.09,WeatherDisplay:10.37,2013-06-12 12:48:00,
2013-06-12 05:53:00,51.0,48.5,30.25,South,174,0.0,0.0,91,0.00,SCT,SCT,0.09,WeatherDisplay:10.37,2013-06-12 12:53:00,
2013-06-12 05:58:00,50.9,47.8,30.25,South,174,0.0,0.0,89,0.00,SCT,SCT,0.09,WeatherDisplay:10.37,2013-06-12 12:58:00,
2013-06-12 06:03:00,50.9,48.1,30.25,South,174,0.0,0.0,90,0.00,SCT,SCT,0.09,WeatherDisplay:10.37,2013-06-12 13:03:00,
2013-06-12 06:08:00,51.1,48.3,30.25,South,174,0.0,0.0,90,0.00,SCT,SCT,0.09,WeatherDisplay:10.37,2013-06-12 13:08:00,
2013-06-12 06:13:00,51.2,48.4,30.25,South,174,0.0,0.0,90,0.00,SCT,SCT,0.09,WeatherDisplay:10.37,2013-06-12 13:13:00,
2013-06-12 06:18:00,51.2,48.7,30.26,South,174,0.0,0.0,91,0.00,SCT,SCT,0.09,WeatherDisplay:10.37,2013-06-12 13:18:00,
2013-06-12 06:23:00,51.2,48.6,30.26,South,174,0.0,0.0,91,0.00,SCT,SCT,0.09,WeatherDisplay:10.37,2013-06-12 13:23:00,
2013-06-12 06:28:00,51.2,48.3,30.26,South,174,0.0,0.0,90,0.00,SCT,SCT,0.09,WeatherDisplay:10.37,2013-06-12 13:28:00,
2013-06-12 06:33:00,51.2,48.4,30.26,South,174,0.0,0.0,90,0.00,SCT,SCT,0.09,WeatherDisplay:10.37,2013-06-12 13:33:00,
2013-06-12 06:38:00,51.2,47.8,30.26,South,174,0.0,0.0,88,0.00,SCT,SCT,0.09,WeatherDisplay:10.37,2013-06-12 13:38:00,
2013-06-12 06:43:00,51.3,48.2,30.26,SSW,195,0.0,0.0,89,0.00,SCT,SCT,0.09,WeatherDisplay:10.37,2013-06-12 13:43:00,
2013-06-12 06:48:00,51.5,48.4,30.26,WSW,239,0.0,0.0,89,0.00,SCT,SCT,0.09,WeatherDisplay:10.37,2013-06-12 13:48:00,
2013-06-12 06:53:00,51.6,48.2,30.26,WSW,247,0.0,0.0,88,0.00,SCT,SCT,0.09,WeatherDisplay:10.37,2013-06-12 13:53:00,
2013-06-12 06:58:00,51.7,48.3,30.26,WSW,237,0.0,0.0,88,0.00,SCT,SCT,0.09,WeatherDisplay:10.37,2013-06-12 13:58:00,
2013-06-12 07:03:00,51.9,48.2,30.26,SW,218,0.0,0.0,87,0.00,RA,RA,0.00,WeatherDisplay:10.37,2013-06-12 14:03:00,
2013-06-12 07:08:00,52.1,48.0,30.26,SSW,205,0.0,0.0,86,0.00,RA,RA,0.00,WeatherDisplay:10.37,2013-06-12 14:08:00,
2013-06-12 07:13:00,52.2,48.1,30.26,South,170,0.0,0.0,86,0.00,SCT,SCT,0.00,WeatherDisplay:10.37,2013-06-12 14:13:00,
2013-06-12 07:18:00,52.4,48.0,30.26,South,175,0.0,0.0,85,0.00,SCT,SCT,0.00,WeatherDisplay:10.37,2013-06-12 14:18:00,
2013-06-12 07:23:00,52.5,48.1,30.25,South,185,0.0,0.0,85,0.00,SCT,SCT,0.00,WeatherDisplay:10.37,2013-06-12 14:23:00,
2013-06-12 07:28:00,52.7,48.3,30.25,South,172,0.0,0.0,85,0.00,SCT,SCT,0.00,WeatherDisplay:10.37,2013-06-12 14:28:00,
2013-06-12 07:33:00,53.0,48.3,30.25,South,169,0.0,0.0,84,0.00,SCT,SCT,0.00,WeatherDisplay:10.37,2013-06-12 14:33:00,
2013-06-12 07:38:00,53.2,48.2,30.25,South,180,1.0,2.0,83,0.00,SCT,SCT,0.00,WeatherDisplay:10.37,2013-06-12 14:38:00,
2013-06-12 07:43:00,53.4,48.4,30.25,South,176,0.0,1.0,83,0.00,SCT,SCT,0.00,WeatherDisplay:10.37,2013-06-12 14:43:00,
2013-06-12 07:48:00,53.7,48.7,30.25,SSE,156,0.0,1.0,83,0.00,SCT,SCT,0.00,WeatherDisplay:10.37,2013-06-12 14:48:00,
2013-06-12 07:53:00,53.8,48.1,30.25,SSE,167,1.0,3.0,81,0.00,SCT,SCT,0.00,WeatherDisplay:10.37,2013-06-12 14:53:00,
2013-06-12 07:58:00,54.2,48.8,30.25,SW,229,0.0,2.0,82,0.00,SCT,SCT,0.00,WeatherDisplay:10.37,2013-06-12 14:58:00,
2013-06-12 08:03:00,54.9,49.1,30.25,SE,135,0.0,2.0,81,0.00,SCT,SCT,0.00,WeatherDisplay:10.37,2013-06-12 15:03:00,
2013-06-12 08:08:00,55.7,49.0,30.25,ESE,122,1.0,3.0,78,0.00,SCT,SCT,0.00,WeatherDisplay:10.37,2013-06-12 15:08:00,
2013-06-12 08:13:00,56.7,49.9,30.25,SSE,153,0.0,2.0,78,0.00,SCT,SCT,0.00,WeatherDisplay:10.37,2013-06-12 15:13:00,
2013-06-12 08:18:00,57.4,49.2,30.25,South,190,2.0,5.0,74,0.00,SCT,SCT,0.00,WeatherDisplay:10.37,2013-06-12 15:18:00,
2013-06-12 08:23:00,57.6,48.6,30.25,SSE,157,1.0,4.0,72,0.00,SCT,SCT,0.00,WeatherDisplay:10.37,2013-06-12 15:23:00,
2013-06-12 08:28:00,57.3,49.1,30.25,SSE,148,0.0,2.0,74,0.00,SCT,SCT,0.00,WeatherDisplay:10.37,2013-06-12 15:28:00,
2013-06-12 08:33:00,56.8,48.6,30.25,WNW,292,0.0,2.0,74,0.00,SCT,SCT,0.00,WeatherDisplay:10.37,2013-06-12 15:33:00,
2013-06-12 08:38:00,56.2,48.0,30.25,West,276,0.0,5.0,74,0.00,SCT,SCT,0.00,WeatherDisplay:10.37,2013-06-12 15:38:00,
2013-06-12 08:43:00,56.4,48.2,30.25,SW,236,0.0,4.0,74,0.00,SCT,SCT,0.00,WeatherDisplay:10.37,2013-06-12 15:43:00,
2013-06-12 08:48:00,57.4,49.2,30.25,South,171,1.0,5.0,74,0.00,SCT,SCT,0.00,WeatherDisplay:10.37,2013-06-12 15:48:00,
2013-06-12 08:53:00,58.4,49.1,30.25,South,173,1.0,2.0,71,0.00,SCT,SCT,0.00,WeatherDisplay:10.37,2013-06-12 15:53:00,
2013-06-12 08:58:00,58.7,48.9,30.25,SSW,210,1.0,3.0,70,0.00,SCT,SCT,0.00,WeatherDisplay:10.37,2013-06-12 15:58:00,
2013-06-12 09:03:00,57.9,48.9,30.25,West,280,2.0,4.0,72,0.00,SCT,SCT,0.00,WeatherDisplay:10.37,2013-06-12 16:03:00,
2013-06-12 09:08:00,57.4,48.8,30.25,West,273,0.0,2.0,73,0.00,SCT,SCT,0.00,WeatherDisplay:10.37,2013-06-12 16:08:00,
2013-06-12 09:13:00,57.3,48.7,30.26,WNW,289,1.0,2.0,73,0.00,SCT,SCT,0.00,WeatherDisplay:10.37,2013-06-12 16:13:00,
2013-06-12 09:18:00,57.1,48.2,30.25,WNW,299,2.0,3.0,72,0.00,SCT,SCT,0.00,WeatherDisplay:10.37,2013-06-12 16:18:00,
2013-06-12 09:23:00,57.2,48.6,30.25,West,267,0.0,4.0,73,0.00,SCT,SCT,0.00,WeatherDisplay:10.37,2013-06-12 16:23:00,
2013-06-12 09:28:00,57.2,49.0,30.26,WSW,250,0.0,2.0,74,0.00,SCT,SCT,0.00,WeatherDisplay:10.37,2013-06-12 16:28:00,
2013-06-12 09:33:00,56.8,47.5,30.26,WSW,237,0.0,2.0,71,0.00,SCT,SCT,0.00,WeatherDisplay:10.37,2013-06-12 16:33:00,
2013-06-12 09:38:00,56.3,47.4,30.26,WSW,249,1.0,3.0,72,0.00,SCT,SCT,0.00,WeatherDisplay:10.37,2013-06-12 16:38:00,
2013-06-12 09:43:00,56.2,47.3,30.25,West,267,0.0,1.0,72,0.00,SCT,SCT,0.00,WeatherDisplay:10.37,2013-06-12 16:43:00,
2013-06-12 09:48:00,56.2,47.7,30.26,WNW,287,1.0,3.0,73,0.00,SCT,SCT,0.00,WeatherDisplay:10.37,2013-06-12 16:48:00,
2013-06-12 09:53:00,56.2,46.9,30.26,WNW,303,0.0,2.0,71,0.00,SCT,SCT,0.00,WeatherDisplay:10.37,2013-06-12 16:53:00,
2013-06-12 09:58:00,56.4,46.7,30.26,NW,306,0.0,1.0,70,0.00,SCT,SCT,0.00,WeatherDisplay:10.37,2013-06-12 16:58:00,
2013-06-12 10:08:00,56.8,47.1,30.26,SE,136,0.0,0.0,70,0.00,SCT,SCT,0.00,WeatherDisplay:10.37,2013-06-12 17:08:00,
2013-06-12 10:13:00,57.1,47.4,30.26,SSE,162,0.0,0.0,70,0.00,SCT,SCT,0.00,WeatherDisplay:10.37,2013-06-12 17:13:00,
2013-06-12 10:18:00,57.4,48.1,30.26,SSW,205,1.0,2.0,71,0.00,SCT,SCT,0.00,WeatherDisplay:10.37,2013-06-12 17:18:00,
2013-06-12 10:23:00,57.7,47.2,30.25,SSW,199,0.0,1.0,68,0.00,SCT,SCT,0.00,WeatherDisplay:10.37,2013-06-12 17:23:00,
2013-06-12 10:28:00,57.9,46.6,30.25,SE,125,0.0,1.0,66,0.00,SCT,SCT,0.00,WeatherDisplay:10.37,2013-06-12 17:28:00,
2013-06-12 10:33:00,58.5,47.1,30.25,SE,141,1.0,3.0,66,0.00,SCT,SCT,0.00,WeatherDisplay:10.37,2013-06-12 17:33:00,
2013-06-12 10:38:00,58.7,47.4,30.26,WSW,258,2.0,3.0,66,0.00,SCT,SCT,0.00,WeatherDisplay:10.37,2013-06-12 17:38:00,
2013-06-12 10:43:00,58.5,48.8,30.26,WNW,303,0.0,1.0,70,0.00,SCT,SCT,0.00,WeatherDisplay:10.37,2013-06-12 17:43:00,
2013-06-12 10:48:00,58.2,47.7,30.26,WNW,289,1.0,3.0,68,0.00,SCT,SCT,0.00,WeatherDisplay:10.37,2013-06-12 17:48:00,
2013-06-12 10:53:00,57.9,47.8,30.26,WSW,258,0.0,2.0,69,0.00,SCT,SCT,0.00,WeatherDisplay:10.37,2013-06-12 17:53:00,
2013-06-12 10:58:00,57.9,47.8,30.25,SW,216,1.0,1.0,69,0.00,SCT,SCT,0.00,WeatherDisplay:10.37,2013-06-12 17:58:00,
2013-06-12 11:03:00,58.1,48.0,30.25,SSE,167,1.0,1.0,69,0.00,SCT,SCT,0.00,WeatherDisplay:10.37,2013-06-12 18:03:00,
2013-06-12 11:08:00,58.7,47.8,30.25,SE,128,1.0,4.0,67,0.00,SCT,SCT,0.00,WeatherDisplay:10.37,2013-06-12 18:08:00,
2013-06-12 11:13:00,59.4,47.6,30.25,SSE,159,1.0,3.0,65,0.00,SCT,SCT,0.00,WeatherDisplay:10.37,2013-06-12 18:13:00,
2013-06-12 11:18:00,60.5,47.4,30.25,South,182,1.0,4.0,62,0.00,SCT,SCT,0.00,WeatherDisplay:10.37,2013-06-12 18:18:00,
2013-06-12 11:23:00,61.0,48.3,30.25,SE,131,2.0,5.0,63,0.00,SCT,SCT,0.00,WeatherDisplay:10.37,2013-06-12 18:23:00,
2013-06-12 11:28:00,60.7,45.8,30.25,SE,132,1.0,4.0,58,0.00,SCT,SCT,0.00,WeatherDisplay:10.37,2013-06-12 18:28:00,
2013-06-12 11:33:00,60.6,46.6,30.25,SSE,152,2.0,5.0,60,0.00,SCT,SCT,0.00,WeatherDisplay:10.37,2013-06-12 18:33:00,
2013-06-12 11:38:00,60.2,47.2,30.25,WSW,255,1.0,2.0,62,0.00,SCT,SCT,0.00,WeatherDisplay:10.37,2013-06-12 18:38:00,
2013-06-12 11:43:00,59.7,47.1,30.25,WSW,249,1.0,2.0,63,0.00,SCT,SCT,0.00,WeatherDisplay:10.37,2013-06-12 18:43:00,
2013-06-12 11:48:00,59.3,47.5,30.25,WSW,247,1.0,3.0,65,0.00,SCT,SCT,0.00,WeatherDisplay:10.37,2013-06-12 18:48:00,
2013-06-12 11:53:00,58.7,47.0,30.25,WSW,240,0.0,2.0,65,0.00,SCT,SCT,0.00,WeatherDisplay:10.37,2013-06-12 18:53:00,
2013-06-12 11:58:00,58.5,48.0,30.25,WSW,240,0.0,0.0,68,0.00,SCT,SCT,0.00,WeatherDisplay:10.37,2013-06-12 18:58:00,
2013-06-12 12:03:00,58.2,48.1,30.25,WSW,243,0.0,2.0,69,0.00,SCT,SCT,0.00,WeatherDisplay:10.37,2013-06-12 19:03:00,
2013-06-12 12:08:00,58.0,47.9,30.25,WSW,247,0.0,1.0,69,0.00,SCT,SCT,0.00,WeatherDisplay:10.37,2013-06-12 19:08:00,
2013-06-12 12:18:00,57.6,48.6,30.25,WSW,248,0.0,0.0,72,0.00,SCT,SCT,0.00,WeatherDisplay:10.37,2013-06-12 19:18:00,
2013-06-12 12:23:00,57.8,48.8,30.25,WSW,248,0.0,0.0,72,0.00,SCT,SCT,0.00,WeatherDisplay:10.37,2013-06-12 19:23:00,
2013-06-12 12:28:00,58.1,49.1,30.25,WSW,247,0.0,0.0,72,0.00,SCT,SCT,0.00,WeatherDisplay:10.37,2013-06-12 19:28:00,
2013-06-12 12:33:00,58.7,48.2,30.25,SW,224,0.0,1.0,68,0.00,SCT,SCT,0.00,WeatherDisplay:10.37,2013-06-12 19:33:00,
2013-06-12 12:43:00,60.0,48.6,30.25,South,171,1.0,3.0,66,0.00,SCT,SCT,0.00,WeatherDisplay:10.37,2013-06-12 19:43:00,
2013-06-12 12:48:00,60.9,49.1,30.25,SSW,211,1.0,3.0,65,0.00,SCT,SCT,0.00,WeatherDisplay:10.37,2013-06-12 19:48:00,
2013-06-12 12:53:00,61.3,49.1,30.25,South,179,0.0,3.0,64,0.00,SCT,SCT,0.00,WeatherDisplay:10.37,2013-06-12 19:53:00,
2013-06-12 12:58:00,61.6,48.9,30.25,SE,138,0.0,2.0,63,0.00,SCT,SCT,0.00,WeatherDisplay:10.37,2013-06-12 19:58:00,
2013-06-12 13:03:00,61.4,48.6,30.25,ESE,118,1.0,1.0,63,0.00,SCT,SCT,0.00,WeatherDisplay:10.37,2013-06-12 20:03:00,
2013-06-12 13:08:00,60.8,48.9,30.25,ESE,106,0.0,1.0,65,0.00,SCT,SCT,0.00,WeatherDisplay:10.37,2013-06-12 20:08:00,
2013-06-12 13:13:00,60.5,49.1,30.25,ESE,108,0.0,1.0,66,0.00,SCT,SCT,0.00,WeatherDisplay:10.37,2013-06-12 20:13:00,
2013-06-12 13:18:00,60.3,49.2,30.25,NE,49,0.0,0.0,67,0.00,SCT,SCT,0.00,WeatherDisplay:10.37,2013-06-12 20:18:00,
2013-06-12 13:23:00,59.6,48.7,30.25,NNW,336,1.0,2.0,67,0.01,RA,RA,0.01,WeatherDisplay:10.37,2013-06-12 20:23:00,
2013-06-12 13:28:00,58.9,49.1,30.25,WNW,296,1.0,2.0,70,0.00,RA,RA,0.01,WeatherDisplay:10.37,2013-06-12 20:28:00,
2013-06-12 13:33:00,58.3,50.0,30.25,West,279,0.0,0.0,74,0.00,SCT,SCT,0.01,WeatherDisplay:10.37,2013-06-12 20:33:00,
2013-06-12 13:38:00,58.1,50.6,30.25,West,278,0.0,1.0,76,0.00,SCT,SCT,0.01,WeatherDisplay:10.37,2013-06-12 20:38:00,
2013-06-12 13:48:00,60.5,49.1,30.25,NW,313,1.0,2.0,66,0.00,SCT,SCT,0.01,WeatherDisplay:10.37,2013-06-12 20:48:00,
2013-06-12 13:53:00,61.7,48.5,30.24,SE,128,3.0,5.0,62,0.00,SCT,SCT,0.01,WeatherDisplay:10.37,2013-06-12 20:53:00,
2013-06-12 13:58:00,61.9,49.6,30.24,SSW,192,2.0,3.0,64,0.00,SCT,SCT,0.01,WeatherDisplay:10.37,2013-06-12 20:58:00,
2013-06-12 14:03:00,61.7,49.0,30.24,WSW,245,1.0,2.0,63,0.00,SCT,SCT,0.01,WeatherDisplay:10.37,2013-06-12 21:03:00,
2013-06-12 14:08:00,62.5,49.3,30.24,WSW,256,2.0,4.0,62,0.00,SCT,SCT,0.01,WeatherDisplay:10.37,2013-06-12 21:08:00,
2013-06-12 14:13:00,62.7,48.2,30.24,West,266,1.0,3.0,59,0.00,SCT,SCT,0.01,WeatherDisplay:10.37,2013-06-12 21:13:00,
2013-06-12 14:18:00,63.2,49.1,30.24,West,275,1.0,3.0,60,0.00,SCT,SCT,0.01,WeatherDisplay:10.37,2013-06-12 21:18:00,
2013-06-12 14:23:00,62.8,48.7,30.24,WSW,255,1.0,3.0,60,0.00,SCT,SCT,0.01,WeatherDisplay:10.37,2013-06-12 21:23:00,
2013-06-12 14:28:00,63.0,48.0,30.24,SSW,195,1.0,3.0,58,0.00,SCT,SCT,0.01,WeatherDisplay:10.37,2013-06-12 21:28:00,
2013-06-12 14:33:00,63.1,48.5,30.24,WSW,248,0.0,3.0,59,0.00,SCT,SCT,0.01,WeatherDisplay:10.37,2013-06-12 21:33:00,
2013-06-12 14:38:00,62.8,48.3,30.24,West,266,1.0,3.0,59,0.00,SCT,SCT,0.01,WeatherDisplay:10.37,2013-06-12 21:38:00,
2013-06-12 14:43:00,62.3,48.2,30.24,West,268,0.0,2.0,60,0.00,SCT,SCT,0.01,WeatherDisplay:10.37,2013-06-12 21:43:00,
2013-06-12 14:48:00,62.1,48.5,30.24,WSW,253,0.0,2.0,61,0.00,SCT,SCT,0.01,WeatherDisplay:10.37,2013-06-12 21:48:00,
2013-06-12 14:53:00,62.2,47.2,30.23,West,267,1.0,3.0,58,0.00,SCT,SCT,0.01,WeatherDisplay:10.37,2013-06-12 21:53:00,
2013-06-12 14:58:00,62.7,46.7,30.23,WNW,292,1.0,2.0,56,0.00,SCT,SCT,0.01,WeatherDisplay:10.37,2013-06-12 21:58:00,
2013-06-12 15:03:00,63.3,47.3,30.23,WNW,289,0.0,3.0,56,0.00,SCT,SCT,0.01,WeatherDisplay:10.37,2013-06-12 22:03:00,
2013-06-12 15:08:00,63.6,46.1,30.23,WNW,300,0.0,3.0,53,0.00,SCT,SCT,0.01,WeatherDisplay:10.37,2013-06-12 22:08:00,
2013-06-12 15:13:00,63.8,47.8,30.23,WNW,298,0.0,2.0,56,0.00,SCT,SCT,0.01,WeatherDisplay:10.37,2013-06-12 22:13:00,
2013-06-12 15:18:00,63.5,47.5,30.23,WSW,251,1.0,2.0,56,0.00,SCT,SCT,0.01,WeatherDisplay:10.37,2013-06-12 22:18:00,
2013-06-12 15:23:00,63.0,48.9,30.23,WSW,246,0.0,2.0,60,0.00,SCT,SCT,0.01,WeatherDisplay:10.37,2013-06-12 22:23:00,
2013-06-12 15:28:00,62.7,49.1,30.23,West,259,0.0,5.0,61,0.00,SCT,SCT,0.01,WeatherDisplay:10.37,2013-06-12 22:28:00,
2013-06-12 15:33:00,62.2,47.3,30.24,West,266,1.0,3.0,58,0.00,SCT,SCT,0.01,WeatherDisplay:10.37,2013-06-12 22:33:00,
2013-06-12 15:38:00,61.5,48.3,30.24,West,264,1.0,7.0,62,0.00,SCT,SCT,0.01,WeatherDisplay:10.37,2013-06-12 22:38:00,
2013-06-12 15:43:00,60.2,48.8,30.24,West,269,1.0,7.0,66,0.00,SCT,SCT,0.01,WeatherDisplay:10.37,2013-06-12 22:43:00,
2013-06-12 15:48:00,59.6,48.2,30.25,West,268,1.0,3.0,66,0.00,SCT,SCT,0.01,WeatherDisplay:10.37,2013-06-12 22:48:00,
2013-06-12 15:53:00,58.9,48.4,30.25,West,267,0.0,3.0,68,0.00,SCT,SCT,0.01,WeatherDisplay:10.37,2013-06-12 22:53:00,
2013-06-12 15:58:00,58.6,49.6,30.25,West,259,1.0,4.0,72,0.00,SCT,SCT,0.01,WeatherDisplay:10.37,2013-06-12 22:58:00,
2013-06-12 16:03:00,58.2,49.6,30.25,WSW,256,1.0,2.0,73,0.01,RA,RA,0.02,WeatherDisplay:10.37,2013-06-12 23:03:00,
2013-06-12 16:08:00,58.2,51.0,30.25,WSW,243,1.0,3.0,77,0.00,RA,RA,0.02,WeatherDisplay:10.37,2013-06-12 23:08:00,
2013-06-12 16:13:00,59.2,52.0,30.25,WSW,246,1.0,2.0,77,0.00,SCT,SCT,0.02,WeatherDisplay:10.37,2013-06-12 23:13:00,
2013-06-12 16:18:00,59.9,52.0,30.24,WSW,257,0.0,2.0,75,0.00,SCT,SCT,0.02,WeatherDisplay:10.37,2013-06-12 23:18:00,
2013-06-12 16:23:00,60.3,52.0,30.24,SW,227,0.0,1.0,74,0.00,SCT,SCT,0.02,WeatherDisplay:10.37,2013-06-12 23:23:00,
2013-06-12 16:28:00,59.9,52.4,30.24,WSW,244,0.0,2.0,76,0.00,SCT,SCT,0.02,WeatherDisplay:10.37,2013-06-12 23:28:00,
2013-06-12 16:33:00,59.9,52.0,30.24,West,278,0.0,0.0,75,0.00,SCT,SCT,0.02,WeatherDisplay:10.37,2013-06-12 23:33:00,
2013-06-12 16:38:00,59.7,52.1,30.24,West,264,0.0,1.0,76,0.00,SCT,SCT,0.02,WeatherDisplay:10.37,2013-06-12 23:38:00,
2013-06-12 16:43:00,59.7,51.4,30.24,WSW,242,1.0,2.0,74,0.00,SCT,SCT,0.02,WeatherDisplay:10.37,2013-06-12 23:43:00,
2013-06-12 16:48:00,59.8,50.8,30.24,WSW,238,1.0,2.0,72,0.00,SCT,SCT,0.02,WeatherDisplay:10.37,2013-06-12 23:48:00,
2013-06-12 16:53:00,60.1,49.5,30.24,West,269,5.0,8.0,68,0.00,SCT,SCT,0.02,WeatherDisplay:10.37,2013-06-12 23:53:00,
2013-06-12 16:58:00,60.1,49.5,30.24,West,266,1.0,6.0,68,0.00,SCT,SCT,0.02,WeatherDisplay:10.37,2013-06-12 23:58:00,
2013-06-12 17:03:00,60.5,49.1,30.24,West,275,1.0,5.0,66,0.00,SCT,SCT,0.02,WeatherDisplay:10.37,2013-06-13 00:03:00,
2013-06-12 17:08:00,60.9,49.5,30.25,West,272,2.0,8.0,66,0.00,SCT,SCT,0.02,WeatherDisplay:10.37,2013-06-13 00:08:00,
2013-06-12 17:13:00,60.8,49.0,30.25,West,273,1.0,9.0,65,0.00,SCT,SCT,0.02,WeatherDisplay:10.37,2013-06-13 00:13:00,
2013-06-12 17:18:00,60.8,49.3,30.25,WNW,284,1.0,5.0,66,0.00,SCT,SCT,0.02,WeatherDisplay:10.37,2013-06-13 00:18:00,
2013-06-12 17:23:00,59.8,48.8,30.25,WSW,251,1.0,6.0,67,0.00,SCT,SCT,0.02,WeatherDisplay:10.37,2013-06-13 00:23:00,
2013-06-12 17:28:00,59.2,49.4,30.25,WSW,248,1.0,4.0,70,0.00,SCT,SCT,0.02,WeatherDisplay:10.37,2013-06-13 00:28:00,
2013-06-12 17:33:00,59.2,49.1,30.25,WSW,248,2.0,4.0,69,0.00,SCT,SCT,0.02,WeatherDisplay:10.37,2013-06-13 00:33:00,
2013-06-12 17:38:00,59.2,49.8,30.25,WSW,252,1.0,4.0,71,0.00,SCT,SCT,0.02,WeatherDisplay:10.37,2013-06-13 00:38:00,
2013-06-12 17:43:00,59.9,49.3,30.25,SW,226,2.0,4.0,68,0.00,SCT,SCT,0.02,WeatherDisplay:10.37,2013-06-13 00:43:00,
2013-06-12 17:48:00,60.4,49.8,30.25,SW,222,1.0,4.0,68,0.00,SCT,SCT,0.02,WeatherDisplay:10.37,2013-06-13 00:48:00,
2013-06-12 17:53:00,60.3,48.8,30.25,SW,236,2.0,6.0,66,0.00,SCT,SCT,0.02,WeatherDisplay:10.37,2013-06-13 00:53:00,
2013-06-12 17:58:00,60.1,48.7,30.25,West,277,1.0,6.0,66,0.00,SCT,SCT,0.02,WeatherDisplay:10.37,2013-06-13 00:58:00,
2013-06-12 18:03:00,59.7,48.3,30.25,WSW,256,1.0,5.0,66,0.00,SCT,SCT,0.02,WeatherDisplay:10.37,2013-06-13 01:03:00,
2013-06-12 18:08:00,59.2,48.3,30.25,WSW,238,2.0,5.0,67,0.00,SCT,SCT,0.02,WeatherDisplay:10.37,2013-06-13 01:08:00,
2013-06-12 18:13:00,58.8,48.6,30.25,WSW,254,0.0,3.0,69,0.00,SCT,SCT,0.02,WeatherDisplay:10.37,2013-06-13 01:13:00,
2013-06-12 18:18:00,58.8,49.4,30.25,West,266,0.0,1.0,71,0.00,SCT,SCT,0.02,WeatherDisplay:10.37,2013-06-13 01:18:00,
2013-06-12 18:23:00,58.8,48.6,30.25,West,279,1.0,4.0,69,0.00,SCT,SCT,0.02,WeatherDisplay:10.37,2013-06-13 01:23:00,
2013-06-12 18:28:00,58.8,49.4,30.25,SW,214,0.0,2.0,71,0.00,SCT,SCT,0.02,WeatherDisplay:10.37,2013-06-13 01:28:00,
2013-06-12 18:33:00,58.8,49.0,30.25,SSE,156,1.0,2.0,70,0.00,SCT,SCT,0.02,WeatherDisplay:10.37,2013-06-13 01:33:00,
2013-06-12 18:38:00,58.7,49.3,30.25,South,183,1.0,2.0,71,0.00,SCT,SCT,0.02,WeatherDisplay:10.37,2013-06-13 01:38:00,
2013-06-12 18:43:00,58.6,50.0,30.25,SSE,163,1.0,2.0,73,0.00,SCT,SCT,0.02,WeatherDisplay:10.37,2013-06-13 01:43:00,
2013-06-12 18:48:00,58.5,49.5,30.25,SSE,152,0.0,1.0,72,0.00,SCT,SCT,0.02,WeatherDisplay:10.37,2013-06-13 01:48:00,
2013-06-12 18:53:00,58.7,50.1,30.25,SE,146,0.0,1.0,73,0.00,SCT,SCT,0.02,WeatherDisplay:10.37,2013-06-13 01:53:00,
2013-06-12 18:58:00,58.7,50.1,30.25,SE,127,0.0,1.0,73,0.00,SCT,SCT,0.02,WeatherDisplay:10.37,2013-06-13 01:58:00,
2013-06-12 19:03:00,58.6,49.6,30.25,SE,137,0.0,2.0,72,0.00,SCT,SCT,0.02,WeatherDisplay:10.37,2013-06-13 02:03:00,
2013-06-12 19:08:00,58.7,49.7,30.25,SW,227,1.0,2.0,72,0.00,SCT,SCT,0.02,WeatherDisplay:10.37,2013-06-13 02:08:00,
2013-06-12 19:13:00,59.1,50.1,30.25,WNW,299,0.0,1.0,72,0.00,SCT,SCT,0.02,WeatherDisplay:10.37,2013-06-13 02:13:00,
2013-06-12 19:18:00,58.8,50.2,30.25,NE,53,0.0,3.0,73,0.00,SCT,SCT,0.02,WeatherDisplay:10.37,2013-06-13 02:18:00,
2013-06-12 19:23:00,58.4,49.8,30.25,SE,127,0.0,1.0,73,0.00,SCT,SCT,0.02,WeatherDisplay:10.37,2013-06-13 02:23:00,
2013-06-12 19:28:00,58.1,49.8,30.25,SE,145,0.0,1.0,74,0.00,SCT,SCT,0.02,WeatherDisplay:10.37,2013-06-13 02:28:00,
2013-06-12 19:33:00,57.8,49.2,30.25,SE,125,0.0,1.0,73,0.00,SCT,SCT,0.02,WeatherDisplay:10.37,2013-06-13 02:33:00,
2013-06-12 19:38:00,57.6,48.6,30.25,SE,144,0.0,1.0,72,0.00,SCT,SCT,0.02,WeatherDisplay:10.37,2013-06-13 02:38:00,
2013-06-12 19:43:00,57.3,48.4,30.25,SSE,160,0.0,1.0,72,0.00,SCT,SCT,0.02,WeatherDisplay:10.37,2013-06-13 02:43:00,
2013-06-12 19:48:00,57.1,48.5,30.25,SSE,160,0.0,0.0,73,0.00,SCT,SCT,0.02,WeatherDisplay:10.37,2013-06-13 02:48:00,
2013-06-12 19:53:00,56.9,48.7,30.25,SSE,160,0.0,0.0,74,0.00,SCT,SCT,0.02,WeatherDisplay:10.37,2013-06-13 02:53:00,
2013-06-12 19:58:00,56.5,50.1,30.25,SSW,203,1.0,3.0,79,0.03,RA,RA,0.05,WeatherDisplay:10.37,2013-06-13 02:58:00,
2013-06-12 20:03:00,55.3,49.9,30.26,West,261,1.0,3.0,82,0.01,RA,RA,0.06,WeatherDisplay:10.37,2013-06-13 03:03:00,
2013-06-12 20:08:00,53.9,49.8,30.26,WSW,248,1.0,5.0,86,0.01,RA,RA,0.07,WeatherDisplay:10.37,2013-06-13 03:08:00,
2013-06-12 20:13:00,53.0,49.3,30.25,WSW,257,0.0,1.0,87,0.01,RA,RA,0.08,WeatherDisplay:10.37,2013-06-13 03:13:00,
2013-06-12 20:18:00,52.6,49.4,30.25,West,275,0.0,0.0,89,0.02,RA,RA,0.10,WeatherDisplay:10.37,2013-06-13 03:18:00,
2013-06-12 20:23:00,52.3,49.4,30.25,West,275,0.0,0.0,90,0.00,RA,RA,0.10,WeatherDisplay:10.37,2013-06-13 03:23:00,
2013-06-12 20:28:00,52.1,49.6,30.25,West,274,0.0,0.0,91,0.00,SCT,SCT,0.10,WeatherDisplay:10.37,2013-06-13 03:28:00,
2013-06-12 20:33:00,52.0,49.5,30.25,West,274,0.0,0.0,91,0.00,SCT,SCT,0.10,WeatherDisplay:10.37,2013-06-13 03:33:00,
2013-06-12 20:38:00,51.9,49.6,30.25,West,274,0.0,0.0,92,0.00,SCT,SCT,0.10,WeatherDisplay:10.37,2013-06-13 03:38:00,
2013-06-12 20:43:00,51.8,49.5,30.26,West,274,0.0,0.0,92,0.00,SCT,SCT,0.10,WeatherDisplay:10.37,2013-06-13 03:43:00,
2013-06-12 20:48:00,51.8,49.8,30.26,West,274,0.0,0.0,93,0.00,SCT,SCT,0.10,WeatherDisplay:10.37,2013-06-13 03:48:00,
2013-06-12 20:53:00,51.7,49.7,30.26,West,274,0.0,0.0,93,0.00,SCT,SCT,0.10,WeatherDisplay:10.37,2013-06-13 03:53:00,
2013-06-12 20:58:00,51.6,49.6,30.26,West,274,0.0,0.0,93,0.00,SCT,SCT,0.10,WeatherDisplay:10.37,2013-06-13 03:58:00,
2013-06-12 21:03:00,51.4,49.4,30.26,West,274,0.0,0.0,93,0.00,SCT,SCT,0.10,WeatherDisplay:10.37,2013-06-13 04:03:00,
2013-06-12 21:08:00,51.2,49.5,30.26,West,274,0.0,0.0,94,0.00,SCT,SCT,0.10,WeatherDisplay:10.37,2013-06-13 04:08:00,
2013-06-12 21:13:00,51.1,49.4,30.26,West,274,0.0,0.0,94,0.00,SCT,SCT,0.10,WeatherDisplay:10.37,2013-06-13 04:13:00,
2013-06-12 21:18:00,51.0,49.3,30.26,West,274,0.0,0.0,94,0.00,SCT,SCT,0.10,WeatherDisplay:10.37,2013-06-13 04:18:00,
2013-06-12 21:23:00,50.9,49.2,30.26,West,274,0.0,0.0,94,0.00,SCT,SCT,0.10,WeatherDisplay:10.37,2013-06-13 04:23:00,
2013-06-12 21:28:00,50.8,49.1,30.26,West,274,0.0,0.0,94,0.00,SCT,SCT,0.10,WeatherDisplay:10.37,2013-06-13 04:28:00,
2013-06-12 21:33:00,50.8,49.1,30.26,West,274,0.0,0.0,94,0.00,SCT,SCT,0.10,WeatherDisplay:10.37,2013-06-13 04:33:00,
2013-06-12 21:38:00,50.7,49.0,30.26,West,274,0.0,0.0,94,0.00,SCT,SCT,0.10,WeatherDisplay:10.37,2013-06-13 04:38:00,
2013-06-12 21:43:00,50.7,49.3,30.27,West,274,0.0,0.0,95,0.00,SCT,SCT,0.10,WeatherDisplay:10.37,2013-06-13 04:43:00,
2013-06-12 21:48:00,50.7,49.3,30.27,West,274,0.0,0.0,95,0.00,SCT,SCT,0.10,WeatherDisplay:10.37,2013-06-13 04:48:00,
2013-06-12 21:53:00,50.8,49.4,30.27,West,274,0.0,0.0,95,0.00,SCT,SCT,0.10,WeatherDisplay:10.37,2013-06-13 04:53:00,
2013-06-12 21:58:00,51.0,49.6,30.27,West,274,0.0,0.0,95,0.00,SCT,SCT,0.10,WeatherDisplay:10.37,2013-06-13 04:58:00,
2013-06-12 22:03:00,51.0,49.6,30.26,West,274,0.0,0.0,95,0.00,SCT,SCT,0.10,WeatherDisplay:10.37,2013-06-13 05:03:00,
2013-06-12 22:08:00,51.1,49.7,30.27,West,274,0.0,0.0,95,0.00,SCT,SCT,0.10,WeatherDisplay:10.37,2013-06-13 05:08:00,
2013-06-12 22:13:00,51.1,49.7,30.27,West,274,0.0,0.0,95,0.00,SCT,SCT,0.10,WeatherDisplay:10.37,2013-06-13 05:13:00,
2013-06-12 22:18:00,51.2,49.8,30.27,West,274,0.0,0.0,95,0.00,SCT,SCT,0.10,WeatherDisplay:10.37,2013-06-13 05:18:00,
2013-06-12 22:23:00,51.3,50.2,30.27,West,275,0.0,0.0,96,0.00,SCT,SCT,0.10,WeatherDisplay:10.37,2013-06-13 05:23:00,
2013-06-12 22:28:00,51.4,50.3,30.27,West,277,0.0,0.0,96,0.01,RA,RA,0.11,WeatherDisplay:10.37,2013-06-13 05:28:00,
2013-06-12 22:33:00,51.4,50.3,30.27,West,278,0.0,0.0,96,0.00,RA,RA,0.11,WeatherDisplay:10.37,2013-06-13 05:33:00,
2013-06-12 22:38:00,51.5,50.4,30.27,West,278,0.0,0.0,96,0.00,SCT,SCT,0.11,WeatherDisplay:10.37,2013-06-13 05:38:00,
2013-06-12 22:43:00,51.5,50.1,30.27,West,277,0.0,1.0,95,0.01,RA,RA,0.12,WeatherDisplay:10.37,2013-06-13 05:43:00,
2013-06-12 22:48:00,51.4,50.0,30.27,West,277,0.0,0.0,95,0.01,RA,RA,0.13,WeatherDisplay:10.37,2013-06-13 05:48:00,
2013-06-12 22:53:00,51.4,50.0,30.27,West,277,0.0,0.0,95,0.01,RA,RA,0.14,WeatherDisplay:10.37,2013-06-13 05:53:00,
2013-06-12 22:58:00,51.4,50.0,30.27,West,277,0.0,0.0,95,0.01,RA,RA,0.15,WeatherDisplay:10.37,2013-06-13 05:58:00,
2013-06-12 23:03:00,51.4,50.0,30.27,West,277,0.0,0.0,95,0.00,RA,RA,0.15,WeatherDisplay:10.37,2013-06-13 06:03:00,
2013-06-12 23:08:00,51.4,50.0,30.27,West,277,0.0,0.0,95,0.00,SCT,SCT,0.15,WeatherDisplay:10.37,2013-06-13 06:08:00,
2013-06-12 23:13:00,51.3,49.9,30.27,West,277,0.0,0.0,95,0.00,SCT,SCT,0.15,WeatherDisplay:10.37,2013-06-13 06:13:00,
2013-06-12 23:18:00,51.3,49.9,30.27,West,277,0.0,0.0,95,0.00,SCT,SCT,0.15,WeatherDisplay:10.37,2013-06-13 06:18:00,
2013-06-12 23:23:00,51.3,49.9,30.27,West,277,0.0,0.0,95,0.00,SCT,SCT,0.15,WeatherDisplay:10.37,2013-06-13 06:23:00,
2013-06-12 23:28:00,51.3,49.9,30.27,West,277,0.0,0.0,95,0.00,SCT,SCT,0.15,WeatherDisplay:10.37,2013-06-13 06:28:00,
2013-06-12 23:33:00,51.3,50.2,30.27,West,277,0.0,0.0,96,0.00,SCT,SCT,0.15,WeatherDisplay:10.37,2013-06-13 06:33:00,
2013-06-12 23:38:00,51.3,50.2,30.27,West,277,0.0,0.0,96,0.00,SCT,SCT,0.15,WeatherDisplay:10.37,2013-06-13 06:38:00,
2013-06-12 23:43:00,51.3,50.2,30.27,West,277,0.0,0.0,96,0.00,SCT,SCT,0.15,WeatherDisplay:10.37,2013-06-13 06:43:00,
2013-06-12 23:48:00,51.3,50.2,30.27,West,277,0.0,0.0,96,0.00,SCT,SCT,0.15,WeatherDisplay:10.37,2013-06-13 06:48:00,
2013-06-12 23:53:00,51.3,50.2,30.27,West,277,0.0,0.0,96,0.00,SCT,SCT,0.15,WeatherDisplay:10.37,2013-06-13 06:53:00,
2013-06-12 23:58:00,51.2,50.1,30.27,West,277,0.0,0.0,96,0.00,SCT,SCT,0.15,WeatherDisplay:10.37,2013-06-13 06:58:00,